Location: Canet
(43.3261°N, 5.3723°E)
Time: 18:36:04
(UTC+00:00)

COSMOS 2406 - Pass Details

Date: 24 January 2021
Orbit: 842 x 865 km, 71.0° (Epoch: 07 March)

Event Time Altitude Azimuth Distance (km) Brightness Sun altitude
Rises 18:23:29 0° 338° (NNW) 3,456 6.6 -18.8°
Reaches altitude 10° 18:26:01 10° 342° (NNW) 2,515 5.8 -19.2°
Maximum altitude 18:31:42 57° 61° (ENE) 1,014 3.2 -20.2°
Enters shadow 18:34:37 28° 128° (SE) 1,556 4.2 -20.8°
